Weather History for KRRT - May, 2013

Change the Weather History Date:

Wednesday, May 1, 2013

  Actual Average (KBDE) Record (KBDE)
Temperature  
Mean Temperature 32 °F -  
Max Temperature 35 °F 58 °F - (-1)
Min Temperature 28 °F 34 °F - (-1)
Degree Days  
Heating Degree Days 34    
Moisture  
Dew Point 24 °F    
Average Humidity 76    
Maximum Humidity 86    
Minimum Humidity 65    
Precipitation  
Precipitation 0.00 in - - ()
Sea Level Pressure  
Sea Level Pressure 30.31 in    
Wind  
Wind Speed 13 mph (WNW)    
Max Wind Speed 17 mph    
Max Gust Speed 29 mph    
Visibility 10 miles    
Events      
Averages and records for this station are not official NWS values.
T = Trace of Precipitation, MM = Missing Value Source: NWS Daily Summary

Daily Weather History Graph

Daily Weather History Graph

Search for Another Location

Airport or City:

Trip Planner

Search our weather history database for the weather conditions in past years. The results will help you decide how hot, cold, wet, or windy it might be!

Date:

Astronomy

May. 01, 2013 Rise Set
Actual Time 6:00 AM CDT 8:37 PM CDT
Civil Twilight 5:24 AM CDT 9:13 PM CDT
Nautical Twilight 4:39 AM CDT 9:58 PM CDT
Astronomical Twilight 3:46 AM CDT 10:52 PM CDT
Moon 1:48 AM CDT (5/1) 11:39 AM CDT (5/1)
Length of Visible Light 15h 48m
Length of Day
14h 37m
Waning Gibbous, 59% of the Moon is Illuminated
May 1
Waning Gibbous
May 2
Last Quarter
May 9
New
May 17
First Quarter
May 24
Full

Hourly Weather History & Observations

Time (CDT) Temp. Windchill Dew Point Humidity Pressure Visibility Wind Dir Wind Speed Gust Speed Precip Events Conditions
12:14 AM 28.4 °F 16.2 °F 24.8 °F 86% 29.94 in 10.0 mi West 17.3 mph 28.8 mph N/A   Overcast
12:34 AM 28.4 °F 17.0 °F 24.8 °F 86% 29.96 in 10.0 mi West 15.0 mph 23.0 mph N/A   Overcast
12:54 AM 28.4 °F 16.2 °F 24.8 °F 86% 29.96 in 10.0 mi West 17.3 mph 26.5 mph N/A   Overcast
1:14 AM 28.4 °F 17.5 °F 24.8 °F 86% 29.97 in 10.0 mi West 13.8 mph 19.6 mph N/A   Overcast
1:33 AM 28.4 °F 17.5 °F 24.8 °F 86% 29.98 in 10.0 mi West 13.8 mph 20.7 mph N/A   Overcast
1:54 AM 28.4 °F 17.0 °F 24.8 °F 86% 29.99 in 10.0 mi West 15.0 mph 24.2 mph N/A   Overcast
2:14 AM 28.4 °F 18.0 °F 24.8 °F 86% 30.00 in 10.0 mi West 12.7 mph 18.4 mph N/A   Overcast
2:34 AM 28.4 °F 16.2 °F 24.8 °F 86% 30.00 in 10.0 mi West 17.3 mph 23.0 mph N/A   Overcast
2:54 AM 28.4 °F 16.6 °F 24.8 °F 86% 30.01 in 10.0 mi West 16.1 mph 26.5 mph N/A   Overcast
3:14 AM 28.4 °F 16.2 °F 24.8 °F 86% 30.02 in 10.0 mi West 17.3 mph 21.9 mph N/A   Overcast
3:34 AM 28.4 °F 18.5 °F 24.8 °F 86% 30.02 in 10.0 mi West 11.5 mph 17.3 mph N/A   Overcast
3:54 AM 28.4 °F 18.5 °F 24.8 °F 86% 30.04 in 10.0 mi WSW 11.5 mph - N/A   Overcast
4:14 AM 28.4 °F 19.1 °F 24.8 °F 86% 30.07 in 10.0 mi WSW 10.4 mph - N/A   Overcast
4:34 AM 28.4 °F 18.5 °F 23.0 °F 80% 30.08 in 10.0 mi West 11.5 mph - N/A   Overcast
4:54 AM 28.4 °F 19.1 °F 23.0 °F 80% 30.10 in 10.0 mi West 10.4 mph 17.3 mph N/A   Overcast
5:13 AM 28.4 °F 20.4 °F 23.0 °F 80% 30.10 in 10.0 mi West 8.1 mph - N/A   Overcast
5:34 AM 28.4 °F 19.7 °F 23.0 °F 80% 30.12 in 10.0 mi West 9.2 mph 17.3 mph N/A   Overcast
5:54 AM 28.4 °F 18.0 °F 23.0 °F 80% 30.11 in 10.0 mi West 12.7 mph 17.3 mph N/A   Overcast
6:14 AM 28.4 °F 18.0 °F 21.2 °F 74% 30.12 in 10.0 mi West 12.7 mph 16.1 mph N/A   Overcast
6:34 AM 28.4 °F 18.0 °F 21.2 °F 74% 30.16 in 10.0 mi West 12.7 mph 17.3 mph N/A   Overcast
6:54 AM 28.4 °F 19.1 °F 21.2 °F 74% 30.17 in 10.0 mi WNW 10.4 mph - N/A   Overcast
7:14 AM 28.4 °F 16.6 °F 21.2 °F 74% 30.18 in 10.0 mi NW 16.1 mph 19.6 mph N/A   Overcast
7:34 AM 28.4 °F 18.0 °F 21.2 °F 74% 30.19 in 10.0 mi WNW 12.7 mph - N/A   Overcast
8:14 AM 28.4 °F 18.5 °F 23.0 °F 80% 30.24 in 10.0 mi WNW 11.5 mph 16.1 mph N/A   Overcast
8:34 AM 28.4 °F 18.5 °F 21.2 °F 74% 30.26 in 10.0 mi West 11.5 mph 17.3 mph N/A   Overcast
8:54 AM 28.4 °F 18.5 °F 21.2 °F 74% 30.25 in 10.0 mi WNW 11.5 mph - N/A   Overcast
9:14 AM 28.4 °F 18.5 °F 21.2 °F 74% 30.27 in 10.0 mi West 11.5 mph - N/A   Overcast
9:33 AM 30.2 °F 21.9 °F 21.2 °F 69% 30.28 in 10.0 mi WNW 9.2 mph - N/A   Overcast
10:14 AM 30.2 °F 20.8 °F 21.2 °F 69% 30.30 in 10.0 mi WNW 11.5 mph - N/A   Overcast
10:34 AM 30.2 °F 21.3 °F 23.0 °F 75% 30.30 in 10.0 mi WNW 10.4 mph - N/A   Overcast
10:54 AM 30.2 °F 20.8 °F 21.2 °F 69% 30.32 in 10.0 mi WNW 11.5 mph 16.1 mph N/A   Overcast
11:14 AM 30.2 °F 20.8 °F 21.2 °F 69% 30.32 in 10.0 mi NW 11.5 mph 16.1 mph N/A   Overcast
11:34 AM 30.2 °F 20.8 °F 21.2 °F 69% 30.33 in 10.0 mi WNW 11.5 mph - N/A   Overcast
11:54 AM 32.0 °F 22.1 °F 23.0 °F 69% 30.33 in 10.0 mi NW 13.8 mph 18.4 mph N/A   Overcast
12:14 PM 32.0 °F 24.8 °F 23.0 °F 69% 30.34 in 10.0 mi WNW 8.1 mph - N/A   Overcast
12:34 PM 32.0 °F 22.5 °F 23.0 °F 69% 30.35 in 10.0 mi NW 12.7 mph 16.1 mph N/A   Overcast
12:54 PM 32.0 °F 24.2 °F 23.0 °F 69% 30.36 in 10.0 mi West 9.2 mph - N/A   Overcast
1:14 PM 32.0 °F 23.6 °F 23.0 °F 69% 30.37 in 10.0 mi WNW 10.4 mph - N/A   Overcast
1:34 PM 33.8 °F 24.8 °F 24.8 °F 70% 30.37 in 10.0 mi WNW 12.7 mph 19.6 mph N/A   Overcast
1:54 PM 33.8 °F 25.8 °F 24.8 °F 70% 30.39 in 10.0 mi WNW 10.4 mph - N/A   Overcast
2:14 PM 35.6 °F 27.1 °F 24.8 °F 65% 30.40 in 10.0 mi WNW 12.7 mph 16.1 mph N/A   Overcast
2:34 PM 35.6 °F 28.6 °F 24.8 °F 65% 30.41 in 10.0 mi NW 9.2 mph - N/A   Overcast
2:54 PM 35.6 °F 27.5 °F 24.8 °F 65% 30.42 in 10.0 mi NW 11.5 mph 18.4 mph N/A   Overcast
3:14 PM 35.6 °F 27.1 °F 24.8 °F 65% 30.43 in 10.0 mi NW 12.7 mph - N/A   Overcast
3:34 PM 35.6 °F 28.6 °F 24.8 °F 65% 30.43 in 10.0 mi NW 9.2 mph - N/A   Overcast
3:54 PM 35.6 °F 27.5 °F 26.6 °F 70% 30.43 in 10.0 mi West 11.5 mph 18.4 mph N/A   Overcast
4:14 PM 35.6 °F 28.0 °F 24.8 °F 65% 30.44 in 10.0 mi West 10.4 mph - N/A   Mostly Cloudy
4:34 PM 35.6 °F 28.6 °F 26.6 °F 70% 30.46 in 10.0 mi WNW 9.2 mph 16.1 mph N/A   Mostly Cloudy
4:54 PM 35.6 °F 28.0 °F 26.6 °F 70% 30.46 in 10.0 mi NW 10.4 mph 16.1 mph N/A   Overcast
5:14 PM 35.6 °F 27.5 °F 26.6 °F 70% 30.47 in 10.0 mi NW 11.5 mph 16.1 mph N/A   Overcast
5:34 PM 33.8 °F 24.3 °F 24.8 °F 70% 30.48 in 10.0 mi NW 13.8 mph 19.6 mph N/A   Overcast
5:54 PM 33.8 °F 25.8 °F 24.8 °F 70% 30.49 in 10.0 mi West 10.4 mph - N/A   Overcast
6:14 PM 33.8 °F 25.3 °F 24.8 °F 70% 30.50 in 10.0 mi West 11.5 mph - N/A   Overcast
6:33 PM 32.0 °F 23.0 °F 24.8 °F 75% 30.51 in - NW 11.5 mph - N/A   Overcast
6:54 PM 32.0 °F 23.6 °F 24.8 °F 75% 30.51 in 10.0 mi NW 10.4 mph 16.1 mph N/A   Overcast
7:13 PM 32.0 °F 23.6 °F 24.8 °F 75% 30.52 in 10.0 mi WNW 10.4 mph - N/A   Overcast
7:34 PM 32.0 °F 24.2 °F 24.8 °F 75% 30.53 in 10.0 mi NW 9.2 mph - N/A   Overcast
7:53 PM 32.0 °F 24.8 °F 24.8 °F 75% 30.53 in 10.0 mi NW 8.1 mph - N/A   Overcast
8:33 PM 32.0 °F 26.4 °F 24.8 °F 75% 30.55 in 10.0 mi NNW 5.8 mph - N/A   Overcast
8:54 PM 30.2 °F 21.9 °F 24.8 °F 80% 30.55 in 10.0 mi NW 9.2 mph - N/A   Overcast
9:33 PM 30.2 °F 25.4 °F 24.8 °F 80% 30.57 in 10.0 mi WNW 4.6 mph - N/A   Overcast
9:54 PM 30.2 °F 25.4 °F 24.8 °F 80% 30.57 in 10.0 mi WNW 4.6 mph - N/A   Overcast
10:14 PM 30.2 °F 26.7 °F 24.8 °F 80% 30.57 in 10.0 mi WNW 3.5 mph - N/A   Overcast
10:34 PM 30.2 °F 25.4 °F 24.8 °F 80% 30.57 in 10.0 mi WNW 4.6 mph - N/A   Overcast
10:54 PM 30.2 °F 24.3 °F 24.8 °F 80% 30.57 in 10.0 mi WNW 5.8 mph - N/A   Overcast
11:14 PM 30.2 °F 24.3 °F 24.8 °F 80% 30.57 in 10.0 mi WNW 5.8 mph - N/A   Overcast
11:34 PM 30.2 °F 25.4 °F 24.8 °F 80% 30.58 in 10.0 mi WNW 4.6 mph - N/A   Overcast
11:54 PM 30.2 °F 23.4 °F 24.8 °F 80% 30.58 in 10.0 mi WNW 6.9 mph - N/A   Overcast